This demonstration page uses our WeatherBlox Daily Observations layout. Learn more.

Left ArrowRight Arrow

31.31129, -92.44514

Hourly Observations for December 2, 2015

Temp ( °F °C ) Dew Point ( °F °C ) Humidity (%) Winds ( mph kmh ) Pressure ( in mb ) Visibility ( mi km ) Precip ( " mm )
12:03 am 00:03 Cloudy 52 11.1 51 10.6 97 97 NNW 8 13 30.00 1016 9 14 0.00 0.00
12:53 am 00:53 Cloudy with Light Rain 52 11.1 51 10.6 97 97 NNW 6 9 30.02 1017 9 14 0.01 0.25
1:18 am 01:18 Cloudy with Rain 52 11.1 51 10.6 97 97 NNE 3 6 29.97 1015 7 11 0.01 0.25
1:28 am 01:28 Cloudy 52 11.1 51 10.6 97 97 NW 3 6 30.00 1016 10 16 0.01 0.25
1:36 am 01:36 Cloudy with Nearby Thunderstorms 52 11.1 51 10.6 97 97 NNW 5 7 30.00 1016 9 14 0.01 0.25
1:53 am 01:53 Mostly Cloudy 51 10.6 51 10.6 100 100 NNW 6 9 30.00 1016 10 16 0.01 0.25
2:53 am 02:53 Cloudy 51 10.6 50 10 96 96 NNW 10 17 30.01 1016 9 14 0.00 0.00
3:33 am 03:33 Mostly Cloudy 50 10 49 9.4 96 96 WNW 5 7 30.03 1017 9 14 0.00 0.00
3:53 am 03:53 Cloudy 50 10 49 9.4 96 96 NNW 5 7 30.03 1017 9 14 0.00 0.00
4:53 am 04:53 Cloudy 49 9.4 48 8.9 97 97 NNW 7 11 30.02 1017 9 14 0.00 0.00
5:53 am 05:53 Cloudy 49 9.4 48 8.9 97 97 NNW 6 9 30.04 1017 10 16 0.00 0.00
6:20 am 06:20 Mostly Cloudy 48 8.9 47 8.3 96 96 NW 5 7 30.06 1018 10 16 0.00 0.00
6:53 am 06:53 Sunny 48 8.9 47 8.3 96 96 NNW 3 6 30.07 1018 10 16 0.00 0.00
7:53 am 07:53 Sunny 48 8.9 46 7.8 93 93 NNW 5 7 30.09 1019 9 14 0.00 0.00
8:53 am 08:53 Sunny 48 8.9 45 7.2 89 89 N 7 11 30.12 1020 10 16 0.00 0.00
9:53 am 09:53 Sunny 49 9.4 44 6.7 83 83 N 9 15 30.13 1020 10 16 0.00 0.00
10:53 am 10:53 Sunny 51 10.6 45 7.2 80 80 N 7 11 30.13 1020 10 16 0.00 0.00
11:53 am 11:53 Sunny 53 11.7 45 7.2 74 74 WNW 7 11 30.11 1020 10 16 0.00 0.00
12:53 pm 12:53 Sunny 54 12.2 42 5.6 64 64 WNW 6 9 30.09 1019 10 16 0.00 0.00
1:53 pm 13:53 Sunny 54 12.2 43 6.1 67 67 W 7 11 30.08 1019 10 16 0.00 0.00
2:53 pm 14:53 Sunny 56 13.3 42 5.6 60 60 WNW 7 11 30.08 1019 10 16 0.00 0.00
3:53 pm 15:53 Sunny 56 13.3 43 6.1 62 62 WSW 6 9 30.08 1019 10 16 0.00 0.00
4:53 pm 16:53 Sunny 54 12.2 44 6.7 69 69 SW 3 6 30.10 1019 10 16 0.00 0.00
5:53 pm 17:53 Clear 49 9.4 45 7.2 86 86 Calm 30.11 1020 10 16 0.00 0.00
6:53 pm 18:53 Clear 49 9.4 44 6.7 83 83 Calm 30.14 1021 10 16 0.00 0.00
7:53 pm 19:53 Clear 46 7.8 44 6.7 93 93 Calm 30.16 1021 10 16 0.00 0.00
8:53 pm 20:53 Clear 45 7.2 42 5.6 90 90 NNW 8 13 30.17 1022 10 16 0.00 0.00
9:53 pm 21:53 Clear 45 7.2 40 4.4 83 83 NNW 6 9 30.20 1023 10 16 0.00 0.00
10:53 pm 22:53 Clear 44 6.7 40 4.4 85 85 N 6 9 30.20 1023 10 16 0.00 0.00
11:53 pm 23:53 Clear 43 6.1 40 4.4 89 89 NNW 3 6 30.22 1023 10 16 0.00 0.00

Powered by AerisWeather